Reno, NV

7:57 AM PDT on March 25, 2017 (GMT -0700)
Reno-Tahoe International

Weather History for KRNO - April, 2013

Change the Weather History Date:

Sunday, April 7, 2013

  Actual Average Record
Temperature  
Mean Temperature 53 °F 49 °F  
Max Temperature 66 °F 62 °F 85 °F (1989)
Min Temperature 40 °F 36 °F 13 °F (1953)
Degree Days  
Heating Degree Days 12 16  
Month to date heating degree days 81 116  
Since 1 July heating degree days 4042 4352  
Cooling Degree Days 0 0  
Month to date cooling degree days 0 0  
Year to date cooling degree days 0 0  
Growing Degree Days 2 (Base 50)    
Moisture  
Dew Point 27 °F    
Average Humidity 34    
Maximum Humidity 50    
Minimum Humidity 18    
Precipitation  
Precipitation T in 0.02 in 0.35 in (1950)
Month to date precipitation T 0.12  
Year to date precipitation 0.41 2.93  
Snow  
Snow 0.00 in 0.00 in 2.00 in (1953)
Month to date snowfall 0.0 0.2  
Since 1 July snowfall 9.4 21.2  
Snow Depth 0.00 in    
Sea Level Pressure  
Sea Level Pressure 29.80 in    
Wind  
Wind Speed 13 mph (West)    
Max Wind Speed 35 mph    
Max Gust Speed 46 mph    
Visibility 10 miles    
Events Rain    
T = Trace of Precipitation, MM = Missing Value Source: NWS Daily Summary

Daily Weather History Graph

Daily Weather History Graph

Search for Another Location

Airport or City:

Trip Planner

Search our weather history database for the weather conditions in past years. The results will help you decide how hot, cold, wet, or windy it might be!

Date:

Astronomy

Apr. 07, 2013 Rise Set
Actual Time 6:33 AM PDT 7:29 PM PDT
Civil Twilight 6:06 AM PDT 7:56 PM PDT
Nautical Twilight 5:33 AM PDT 8:29 PM PDT
Astronomical Twilight 4:59 AM PDT 9:03 PM PDT
Moon 4:53 AM PDT (4/7) 5:07 PM PDT (4/7)
Length of Visible Light 13h 50m
Length of Day
12h 55m
Waning Crescent, 7% of the Moon is Illuminated
Apr 7
Waning Crescent
Apr 10
New
Apr 18
First Quarter
Apr 25
Full
May 2
Last Quarter

Hourly Weather History & Observations

Time (PDT) Temp. Windchill Dew Point Humidity Pressure Visibility Wind Dir Wind Speed Gust Speed Precip Events Conditions
12:55 AM 51.1 °F - 27.0 °F 39% 29.99 in 10.0 mi SW 10.4 mph 19.6 mph N/A   Mostly Cloudy
1:55 AM 50.0 °F - 28.9 °F 44% 29.96 in 10.0 mi WSW 6.9 mph 17.3 mph N/A   Scattered Clouds
2:55 AM 50.0 °F - 30.9 °F 48% 29.91 in 10.0 mi SW 6.9 mph - N/A   Mostly Cloudy
3:55 AM 50.0 °F - 32.0 °F 50% 29.91 in 10.0 mi NNW 11.5 mph - N/A   Mostly Cloudy
4:55 AM 48.9 °F - 30.9 °F 50% 29.90 in 10.0 mi SE 3.5 mph - N/A   Mostly Cloudy
5:55 AM 50.0 °F - 30.9 °F 48% 29.91 in 10.0 mi NNW 12.7 mph - N/A   Mostly Cloudy
6:55 AM 48.9 °F - 30.0 °F 48% 29.94 in 10.0 mi NNW 10.4 mph - N/A   Overcast
7:55 AM 48.9 °F - 30.9 °F 50% 29.95 in 10.0 mi WSW 4.6 mph - N/A   Overcast
8:55 AM 53.1 °F - 28.0 °F 38% 29.94 in 10.0 mi North 6.9 mph - N/A   Mostly Cloudy
9:55 AM 55.0 °F - 28.0 °F 35% 29.91 in 10.0 mi North 8.1 mph - N/A   Scattered Clouds
10:55 AM 59.0 °F - 27.0 °F 29% 29.90 in 10.0 mi East 5.8 mph - N/A   Partly Cloudy
11:55 AM 63.0 °F - 21.0 °F 20% 29.85 in 10.0 mi WNW 13.8 mph 28.8 mph N/A   Scattered Clouds
12:55 PM 64.0 °F - 23.0 °F 21% 29.83 in 10.0 mi WNW 15.0 mph 25.3 mph N/A   Mostly Cloudy
1:55 PM 64.0 °F - 19.0 °F 18% 29.78 in 10.0 mi West 17.3 mph 34.5 mph N/A   Scattered Clouds
2:55 PM 64.0 °F - 21.0 °F 19% 29.73 in 10.0 mi West 21.9 mph 36.8 mph N/A   Mostly Cloudy
3:55 PM 61.0 °F - 25.0 °F 25% 29.73 in 10.0 mi West 23.0 mph 39.1 mph N/A   Overcast
4:55 PM 57.9 °F - 25.0 °F 28% 29.73 in 10.0 mi West 29.9 mph 42.6 mph N/A   Mostly Cloudy
5:55 PM 55.0 °F - 25.0 °F 31% 29.70 in 10.0 mi West 25.3 mph 33.4 mph N/A   Mostly Cloudy
6:55 PM 54.0 °F - 21.9 °F 29% 29.67 in 10.0 mi WSW 18.4 mph 28.8 mph N/A   Scattered Clouds
7:55 PM 51.1 °F - 21.9 °F 32% 29.68 in 10.0 mi WSW 19.6 mph 28.8 mph N/A   Scattered Clouds
8:55 PM 48.9 °F - 23.0 °F 36% 29.66 in 10.0 mi SW 18.4 mph 29.9 mph N/A   Scattered Clouds
9:55 PM 45.0 °F 38.2 °F 27.0 °F 49% 29.65 in 10.0 mi South 15.0 mph - N/A   Scattered Clouds
10:55 PM 41.0 °F 35.2 °F 32.0 °F 70% 29.64 in 10.0 mi WSW 9.2 mph - 0.00 in Rain Light Rain
11:28 PM 39.2 °F 30.5 °F 33.8 °F 81% 29.66 in 10.0 mi South 16.1 mph 24.2 mph 0.00 in   Mostly Cloudy
11:55 PM 41.0 °F - 33.1 °F 73% 29.58 in 10.0 mi Calm Calm - 0.00 in   Mostly Cloudy